• Join FlightAware (Why Join?)
  • Login
  • US Flag GB Flag 
03:44 EST


 

Airport Tracker/Info


-or-


 

Live Flight TrackerFlight Track Log ✈ UPS1325 ✈ 10-Sep-2013 ✈ KMCO - KSDF

Flight Track Log - Related Links

Times and Time Zones

All times are in EDT time to prevent confusion due to time zone crossing. See the UPS1325 flight status page for this flight to view local times or setup timezone preferences in your user account.

Time Position Orientation Groundspeed Altitude Reporting Facility
EDT Latitude Longitude Course Direction KTS MPH feet Rate Location/Type
22:14 28.5010 -81.3200 North 255 293 3,900  Level FlightAware
22:14 28.5280 -81.3150 North 268 308 5,500 4,500 Climbing FlightAware
22:15 28.5530 -81.3110 North 277 319 7,000 4,320 Climbing FlightAware
22:15 28.5840 -81.3060 North 286 329 8,700 4,260 Climbing FlightAware
22:15 28.6040 -81.3040 North 292 336 9,800 2,880 Climbing FlightAware
22:16 28.6350 -81.3150 343° North 335 386 10,600 2,160 Climbing FlightAware
22:16 28.6890 -81.3560 326° Northwest 391 450 12,000 3,120 Climbing FlightAware
22:17 28.7440 -81.3940 329° Northwest 396 456 14,400 3,420 Climbing FlightAware
22:18 28.7950 -81.4220 334° Northwest 401 461 15,800 2,760 Climbing FlightAware
22:18 28.8600 -81.4540 337° Northwest 407 468 17,600 3,060 Climbing FlightAware
22:19 28.9250 -81.4750 344° North 419 482 19,500 3,180 Climbing FlightAware
22:19 28.9940 -81.4970 344° North 428 493 21,400 3,120 Climbing FlightAware
22:20 29.0610 -81.5190 344° North 433 498 23,300 2,940 Climbing FlightAware
22:20 29.1230 -81.5390 344° North 442 509 24,700 2,520 Climbing FlightAware
22:21 29.1980 -81.5630 344° North 454 522 26,200 2,400 Climbing FlightAware
22:22 29.2700 -81.5860 344° North 463 533 27,600 2,280 Climbing FlightAware
22:22 29.3450 -81.6110 344° North 471 542 28,900 2,220 Climbing FlightAware
22:23 29.4140 -81.6330 344° North 474 545 30,200 2,820 Climbing FlightAware
22:23 29.4930 -81.6590 344° North 464 534 32,200 3,000 Climbing FlightAware
22:24 29.5620 -81.6810 344° North 458 527 33,800 2,400 Climbing FlightAware
22:25 29.6290 -81.7030 344° North 459 528 34,900 2,040 Climbing FlightAware
22:25 29.7050 -81.7280 344° North 457 526 36,200 1,800 Climbing FlightAware
22:26 29.7750 -81.7510 344° North 459 528 37,100 1,380 Climbing FlightAware
22:26 29.8510 -81.7750 345° North 464 534 37,900 1,260 Climbing FlightAware
22:27 29.9130 -81.7950 344° North 464 534 38,500 960 Climbing FlightAware
22:27 29.9890 -81.8200 344° North 461 531 39,000 360 Climbing FlightAware
22:28 30.0640 -81.8450 344° North 461 531 39,000  Level FlightAware
22:29 30.1410 -81.8700 344° North 462 532 39,000  Level FlightAware
22:29 30.2030 -81.8900 344° North 462 532 39,000  Level FlightAware
22:30 30.2780 -81.9160 343° North 463 533 39,000  Level FlightAware
22:30 30.3520 -81.9400 344° North 463 533 39,000  Level FlightAware
22:31 30.4290 -81.9650 344° North 462 532 39,000  Level FlightAware
22:32 30.4950 -81.9870 344° North 462 532 39,000  Level FlightAware
22:32 30.5710 -82.0120 344° North 464 534 39,000  Level FlightAware
22:33 30.6410 -82.0350 344° North 464 534 39,000  Level FlightAware
22:33 30.7110 -82.0580 344° North 465 535 39,000  Level FlightAware
22:34 30.7810 -82.0820 344° North 465 535 39,000  Level FlightAware
22:34 30.8570 -82.1070 344° North 466 536 39,000  Level FlightAware
22:35 30.9340 -82.1330 344° North 467 537 39,000  Level FlightAware
22:36 30.9990 -82.1550 344° North 469 540 39,000  Level FlightAware
22:36 31.0750 -82.1800 344° North 469 540 39,000  Level FlightAware
22:37 31.1510 -82.2050 344° North 469 540 39,000  Level FlightAware
22:37 31.2160 -82.2270 344° North 471 542 39,000  Level FlightAware
22:38 31.2990 -82.2550 344° North 472 543 39,000  Level FlightAware
22:39 31.3840 -82.2840 344° North 473 544 39,000  Level FlightAware
22:39 31.4530 -82.3070 344° North 473 544 39,000  Level FlightAware
22:40 31.5340 -82.3350 344° North 472 543 39,000  Level FlightAware
22:40 31.6010 -82.3580 344° North 471 542 39,000  Level FlightAware
22:41 31.6770 -82.3830 344° North 471 542 39,000  Level FlightAware
22:42 31.7550 -82.4100 344° North 469 540 39,000  Level FlightAware
22:42 31.8290 -82.4350 344° North 468 539 39,000  Level FlightAware
22:43 31.8970 -82.4580 344° North 467 537 39,000  Level FlightAware
22:43 31.9640 -82.4810 344° North 466 536 39,000 -120 Level FlightAware
22:44 32.0410 -82.5070 344° North 465 535 38,900  Descending FlightAware
22:45 32.1450 -82.5470 342° North 466 536 39,000 60 Climbing FlightAware
22:45 32.2090 -82.5740 340° North 466 536 39,000  Level FlightAware
22:46 32.2840 -82.6060 340° North 466 536 39,000  Level FlightAware
22:46 32.3490 -82.6340 340° North 465 535 39,000  Level FlightAware
22:47 32.4310 -82.6690 340° North 465 535 39,000  Level FlightAware
22:48 32.4830 -82.6920 340° North 464 534 39,000  Level FlightAware
22:48 32.5680 -82.7280 340° North 465 535 39,000  Level FlightAware
22:49 32.6410 -82.7590 340° North 465 535 39,000  Level FlightAware
22:49 32.7150 -82.7920 339° North 466 536 39,000  Level FlightAware
22:50 32.7770 -82.8180 341° North 466 536 39,000  Level FlightAware
22:51 32.8540 -82.8520 340° North 466 536 39,000  Level FlightAware
22:51 32.9240 -82.8820 340° North 466 536 39,000  Level FlightAware
22:52 32.9940 -82.9130 340° North 466 536 39,000  Level FlightAware
22:52 33.0640 -82.9430 340° North 466 536 39,000  Level FlightAware
22:53 33.1270 -82.9710 340° North 466 536 39,000  Level FlightAware
22:54 33.2100 -83.0070 340° North 466 536 39,000  Level FlightAware
22:54 33.2760 -83.0360 340° North 466 536 39,000  Level FlightAware
22:55 33.3470 -83.0670 340° North 466 536 39,000  Level FlightAware
22:55 33.4220 -83.1000 340° North 466 536 39,000  Level FlightAware
22:56 33.4950 -83.1340 339° North 468 539 39,000  Level FlightAware
22:56 33.5570 -83.1670 336° Northwest 468 539 39,000  Level FlightAware
22:57 33.6280 -83.2040 337° Northwest 467 537 39,000  Level FlightAware
22:58 33.6990 -83.2410 337° Northwest 467 537 39,000  Level FlightAware
22:58 33.7700 -83.2780 337° Northwest 466 536 39,000  Level FlightAware
22:59 33.8340 -83.3120 336° Northwest 467 537 39,000 -120 Level FlightAware
22:59 33.9030 -83.3480 337° Northwest 467 537 38,900 -120 Descending FlightAware
23:00 33.9740 -83.3850 337° Northwest 467 537 38,900 60 Level FlightAware
23:00 34.0311 -83.4158 336° Northwest 467 537 39,000 60 Climbing FlightAware ADS-B
23:01 34.1246 -83.4652 336° Northwest 467 537 39,000 -120 Level FlightAware ADS-B
23:02 34.1840 -83.4966 336° Northwest 469 540 38,900  Descending FlightAware ADS-B
23:02 34.2491 -83.5314 336° Northwest 471 542 39,000 60 Climbing FlightAware ADS-B
23:03 34.3279 -83.5734 336° Northwest 472 543 39,000  Level FlightAware ADS-B
23:03 34.3888 -83.6060 336° Northwest 478 550 39,000  Level FlightAware ADS-B
23:04 34.4554 -83.6413 336° Northwest 480 552 39,000  Level FlightAware ADS-B
23:05 34.5350 -83.6840 336° Northwest 482 555 39,000  Level FlightAware
23:05 34.5788 -83.7074 336° Northwest 482 555 39,000  Level FlightAware ADS-B
23:06 34.6663 -83.7544 336° Northwest 478 550 39,000  Level FlightAware ADS-B
23:06 34.7279 -83.7877 336° Northwest 471 542 39,000  Level FlightAware ADS-B
23:07 34.7808 -83.8164 336° Northwest 465 535 39,000  Level FlightAware ADS-B
23:07 34.8548 -83.8565 336° Northwest 461 531 39,000 -120 Level FlightAware ADS-B
23:08 34.9135 -83.8883 336° Northwest 460 529 38,900  Descending FlightAware ADS-B
23:08 34.9317 -83.8977 337° Northwest 459 528 39,000 180 Climbing FlightAware ADS-B
23:08 34.9725 -83.9142 342° North 459 528 39,000  Level FlightAware ADS-B
23:09 35.0355 -83.9373 343° North 465 535 39,000  Level FlightAware ADS-B
23:09 35.0990 -83.9615 343° North 470 541 39,000  Level FlightAware ADS-B
23:10 35.1640 -83.9860 343° North 474 545 39,000  Level FlightAware ADS-B
23:10 35.2285 -84.0102 343° North 477 549 39,000  Level FlightAware ADS-B
23:11 35.2920 -84.0342 343° North 480 552 39,000  Level FlightAware ADS-B
23:11 35.3616 -84.0605 343° North 480 552 39,000  Level FlightAware ADS-B
23:12 35.4310 -84.0868 343° North 477 549 39,000  Level FlightAware ADS-B
23:12 35.4954 -84.1111 343° North 473 544 39,000  Level FlightAware ADS-B
23:13 35.5581 -84.1350 343° North 469 540 39,000  Level FlightAware ADS-B
23:13 35.6218 -84.1592 343° North 468 539 39,000  Level FlightAware ADS-B
23:14 35.6850 -84.1833 343° North 469 540 39,000  Level FlightAware ADS-B
23:14 35.7491 -84.2075 343° North 474 545 39,000  Level FlightAware ADS-B
23:15 35.8125 -84.2318 343° North 478 550 39,000 -540 Level FlightAware ADS-B
23:15 35.8776 -84.2564 343° North 480 552 38,500 -1,260 Descending FlightAware ADS-B
23:16 35.9422 -84.2809 343° North 468 539 37,700 -1,800 Descending FlightAware ADS-B
23:16 36.0049 -84.3052 343° North 466 536 36,700 -2,040 Descending FlightAware ADS-B
23:17 36.0675 -84.3291 343° North 472 543 35,700 -1,980 Descending FlightAware ADS-B
23:18 36.1384 -84.3563 343° North 477 549 34,600 -2,220 Descending FlightAware ADS-B
23:18 36.2178 -84.3870 343° North 495 570 33,100 -2,820 Descending FlightAware ADS-B
23:19 36.2840 -84.4126 343° North 497 572 31,500 -2,700 Descending FlightAware ADS-B
23:19 36.3504 -84.4390 342° North 483 556 30,400 -1,500 Descending FlightAware ADS-B
23:20 36.4139 -84.4638 343° North 478 550 30,000 -540 Descending FlightAware ADS-B
23:20 36.4783 -84.4885 343° North 481 554 29,900 -840 Descending FlightAware ADS-B
23:21 36.5423 -84.5131 343° North 483 556 29,200 -1,980 Descending FlightAware ADS-B
23:21 36.6077 -84.5392 342° North 481 554 27,900 -2,280 Descending FlightAware ADS-B
23:22 36.6721 -84.5642 343° North 483 556 26,900 -2,100 Descending FlightAware ADS-B
23:22 36.7370 -84.5893 343° North 480 552 25,800 -2,280 Descending FlightAware ADS-B
23:23 36.7998 -84.6140 343° North 469 540 24,600 -1,800 Descending FlightAware ADS-B
23:23 36.8619 -84.6386 342° North 444 511 24,000 -1,020 Descending FlightAware ADS-B
23:24 36.9198 -84.6619 342° North 417 480 23,600 -1,500 Descending FlightAware ADS-B
23:24 36.9759 -84.6838 343° North 410 472 22,500 -2,100 Descending FlightAware ADS-B
23:25 37.0317 -84.7054 343° North 401 461 21,500 -1,980 Descending FlightAware ADS-B
23:25 37.0846 -84.7261 343° North 394 453 20,500 -1,860 Descending FlightAware ADS-B
23:26 37.1389 -84.7476 342° North 390 449 19,600 -1,800 Descending FlightAware ADS-B
23:26 37.1903 -84.7678 343° North 383 441 18,700 -1,680 Descending FlightAware ADS-B
23:27 37.2415 -84.7883 342° North 379 436 17,900 -1,740 Descending FlightAware ADS-B
23:27 37.3027 -84.8126 342° North 374 430 16,800 -1,740 Descending FlightAware ADS-B
23:28 37.3570 -84.8340 343° North 364 419 15,900 -1,680 Descending FlightAware
23:28 37.4014 -84.8520 342° North 368 423 15,100 -1,740 Descending FlightAware ADS-B
23:29 37.4800 -84.8830 343° North 357 411 13,700 -1,740 Descending FlightAware
23:30 37.5300 -84.9030 342° North 346 398 12,800 -1,980 Descending FlightAware
23:30 37.5860 -84.9260 342° North 345 397 11,500 -1,860 Descending FlightAware
23:31 37.6390 -84.9480 342° North 339 390 10,600 -1,380 Descending FlightAware
23:31 37.6550 -84.9590 331° Northwest 336 387 10,400 -900 Descending FlightAware
23:31 37.6730 -84.9800 317° Northwest 334 384 10,200 -1,020 Descending FlightAware
23:32 37.6950 -85.0100 313° West 332 382 9,800 -600 Descending FlightAware
23:32 37.7160 -85.0380 313° West 333 383 9,800  Level FlightAware
23:33 37.7410 -85.0730 312° West 333 383 9,800  Level FlightAware
23:33 37.7610 -85.1000 313° West 332 382 9,800  Level FlightAware
23:33 37.7820 -85.1290 313° West 318 366 9,800  Level FlightAware
23:33 37.7970 -85.1510 311° West 300 345 9,800 -540 Level FlightAware
23:34 37.8120 -85.1770 306° West 289 333 9,500 -900 Descending FlightAware
23:34 37.8260 -85.2080 300° West 288 331 9,200 -900 Descending FlightAware
23:34 37.8380 -85.2370 298° West 286 329 8,900 -900 Descending FlightAware
23:35 37.8480 -85.2580 301° West 286 329 8,700 -840 Descending FlightAware
23:35 37.8620 -85.2900 299° West 283 326 8,400 -720 Descending FlightAware
23:36 37.8800 -85.3310 299° West 279 321 8,100 -600 Descending FlightAware
23:36 37.8930 -85.3610 299° West 276 318 7,900 -780 Descending FlightAware
23:36 37.9060 -85.3890 300° West 274 315 7,600 -780 Descending FlightAware
23:37 37.9220 -85.4270 298° West 271 312 7,300 -660 Descending FlightAware
23:37 37.9350 -85.4550 300° West 272 313 7,100 -720 Descending FlightAware
23:37 37.9490 -85.4890 298° West 271 312 6,800 -420 Descending FlightAware
23:38 37.9610 -85.5150 300° West 270 311 6,800  Level FlightAware
23:38 37.9690 -85.5330 299° West 270 311 6,800  Level FlightAware
23:38 37.9830 -85.5650 299° West 262 302 6,800 -180 Level FlightAware
23:39 37.9950 -85.5920 299° West 244 281 6,700 -600 Descending FlightAware
23:39 38.0060 -85.6190 297° West 239 275 6,400 -720 Descending FlightAware
23:39 38.0130 -85.6330 302° West 240 276 6,300 -720 Descending FlightAware
23:40 38.0270 -85.6630 301° West 241 277 6,000 -720 Descending FlightAware
23:40 38.0370 -85.6870 298° West 243 280 5,800 -420 Descending FlightAware
23:40 38.0440 -85.7030 299° West 242 278 5,800  Level FlightAware
23:41 38.0560 -85.7280 301° West 241 277 5,800  Level FlightAware
23:41 38.0670 -85.7520 300° West 240 276 5,800  Level FlightAware
23:41 38.0760 -85.7710 301° West 240 276 5,800 -360 Level FlightAware
23:41 38.0870 -85.7960 299° West 241 277 5,600 -840 Descending FlightAware
23:42 38.0970 -85.8160 302° West 244 281 5,300 -1,320 Descending FlightAware
23:42 38.1080 -85.8250 327° Northwest 253 291 5,000 -1,500 Descending FlightAware
23:42 38.1170 -85.8290 341° North 254 292 4,800 -1,320 Descending FlightAware
23:42 38.1400 -85.8370 345° North 249 287 4,400 -840 Descending FlightAware
23:43 38.1570 -85.8430 344° North 246 283 4,300 -720 Descending FlightAware
23:43 38.1790 -85.8500 346° North 245 282 4,000 -780 Descending FlightAware
23:43 38.2010 -85.8570 346° North 242 278 3,800 -300 Descending FlightAware
23:44 38.2230 -85.8650 344° North 239 275 3,800  Level FlightAware
23:44 38.2490 -85.8740 345° North 238 274 3,800  Level FlightAware
23:44 38.2620 -85.8780 346° North 239 275 3,800 -240 Level FlightAware
23:45 38.2830 -85.8860 343° North 238 274 3,700 -840 Descending FlightAware
23:45 38.3080 -85.8940 346° North 240 276 3,200 -1,020 Descending FlightAware
23:46 38.3400 -85.8810 18° North 225 259 2,800 -600 Descending FlightAware
23:46 38.3430 -85.8710 69° East 217 250 2,800  Level FlightAware
23:46 38.3450 -85.8620 74° East 204 235 2,800  Level FlightAware
23:46 38.3470 -85.8490 79° East 200 230 2,800  Level FlightAware
23:46 38.3460 -85.8390 97° East 195 224 2,800  Level FlightAware
23:46 38.3430 -85.8310 116° Southeast 191 220 2,800  Level FlightAware
23:47 38.3300 -85.8140 134° Southeast 191 220 2,800  Level FlightAware
23:47 38.3210 -85.8020 134° Southeast 191 220 2,800  Level FlightAware
23:47 38.3130 -85.7930 139° Southeast 191 220 2,800 -360 Level FlightAware
23:47 38.3070 -85.7890 152° Southeast 187 215 2,700 -1,140 Descending FlightAware
23:47 38.3010 -85.7870 165° South 187 215 2,500 -1,080 Descending FlightAware
23:48 38.2840 -85.7810 165° South 180 207 2,200 -900 Descending FlightAware
23:48 38.2680 -85.7750 164° South 164 189 1,900 -780 Descending FlightAware
23:48 38.2540 -85.7710 167° South 141 162 1,700 -720 Descending FlightAware
23:49 38.2400 -85.7660 164° South 139 160 1,400 -840 Descending FlightAware
23:49 38.2270 -85.7620 166° South 139 160 1,100 -840 Descending FlightAware
23:49 38.2160 -85.7580 164° South 140 161 900 -600 Descending FlightAware
23:50 38.2020 -85.7540 167° South 142 163 700 -720 Descending FlightAware
23:50 38.1870 -85.7490 165° South 143 165 400 -840 Descending FlightAware
23:50 38.1770 -85.7460 167° South 132 152 200 -780 Descending FlightAware